Main page


Airports :

Troll A, Norway

Oil platform

latitude: 60-38-42N, longitude: 3-43-29E, elevation: 20 m

Current weather observation

The report was made 25 minutes ago, at 17:20 UTC
Wind 20 kt from the North/Northwest
Temperature 3°C
Humidity 87%
Pressure 1023 hPa
Visibility: 7000 m
light rain

METAR: ENQA 201720Z AUTO 34020KT 7000NDV -RA OVC016/// 03/01 Q1023 W03/S4

Time: 18:45 (17:45 UTC)

TAF: missing

Weather observations and forecasts of more than 4000 airports (METAR and TAF reports).

The available stations are represented by yellow and red dots on the map.

Hover mouse over dot to see the name of the station.

Then click to see weather observations and forecasts.

To change the map : click on the green buttons with a black cross to zoom in, on the green button with a dash to zoom out, or on the green arrows for adjacent maps.